[[{"header":{"parameterUnit":"m.s-1","parameterCategory":1,"la1":30.2992,"la2":30.254,"lo1":-89.0895,"lo2":-89.0443,"dy":0.0025,"dx":0.0025,"nx":19,"ny":19,"refTime":"2026-05-07T09:00:00:Z","depth":0,"parameterNumber":2,"parameterNumberName":"U-component_of_WINDS"},"data":[0,0,0,0.9803,0.9805,0.9931,0.9931,1.0096,1.0098,0,0,0,0,0,0,0,0,0,0,0,0.9766,0.9767,0.9802,0.9806,0.9931,0.9931,1.0096,1.0098,0,0,0,0,0,0,0,0,0,0,0,0.9766,0.9767,0.9769,0.9806,0.9931,0.9931,1.0095,1.0,0,0,0,0,0,0,0,0,0,0,0.9877,0.9844,0.9767,0.9769,0.9807,0.9931,0.9932,0.9995,1.0006,1.004,0,1.007,0,1.0086,1.0109,1.0109,0,0,0,0.9806,0.9835,0.9868,0.9769,0.9808,0.993,0.9874,1.0001,1.0013,1.0055,1.0072,1.0078,1.0089,1.011,1.0111,1.0306,1.0307,0,0,0.9799,0.979,0.986,0.9876,0.9855,0.987,0.9878,1.0008,1.0028,1.0073,1.0082,1.0092,1.0111,1.0112,1.0306,1.0307,0,0,0,0.9779,0.9785,0.9815,0.9869,0.9891,0.9874,0.9883,1.0022,1.0032,1.0084,1.0094,1.0112,1.0114,1.0305,1.0306,1.0343,0,0,0,0.9775,0.9773,0.9812,0.9808,0.9889,0.9958,0.9894,1.0023,1.0038,1.0093,1.0112,1.0115,1.0304,1.0305,1.0339,1.0362,0,0,0,0.9758,0.9771,0.979,0.9807,0.986,0.9956,0.9974,1.0027,1.0044,1.0109,1.0116,1.0303,1.0305,1.0337,1.0358,1.0412,0,0,0,0.9738,0.9821,0.979,0.9887,0.9859,0.9976,0.9973,1.0061,1.0122,1.0113,1.0304,1.0306,1.0336,1.0355,1.0409,1.0457,1.0475,0,0,0.9838,0.9833,0.9891,0.9866,0.9987,0.9958,1.0085,1.015,1.0165,1.0259,1.0264,1.034,1.0357,1.0411,1.058,1.0595,0,0,0,0.992,0.9961,0.9995,1.0051,1.01,1.0145,1.019,1.0214,1.0294,1.021,1.0374,1.0385,1.0416,1.044,1.0453,1.0481,1.0316,1.0315,1.0315,1.0051,1.0063,1.016,1.0188,1.0242,1.0287,1.0333,1.0373,1.0371,1.041,1.0439,1.0539,1.0566,1.0576,1.0605,1.0463,1.0464,1.0464,1.0464,1.02,1.0261,1.0255,1.0346,1.036,1.0438,1.0484,1.048,1.0556,1.0519,1.0548,1.0508,1.0591,1.0618,1.0467,1.0466,1.0466,1.0466,1.0465,1.0289,1.032,1.0346,1.0428,1.0489,1.0515,1.0587,1.0597,1.0607,1.0635,1.0667,1.0667,1.0669,1.0649,1.0649,1.065,1.065,1.065,1.0651,1.0372,1.0399,1.0458,1.0516,1.0553,1.0603,1.0648,1.0685,1.0729,1.0731,1.0731,1.0727,1.0596,1.0564,1.0656,1.0655,1.0654,1.0654,1.0654,1.0522,1.0489,1.0579,1.0616,1.0685,1.0746,1.0757,1.0831,1.0863,1.0899,1.0887,1.0788,1.0785,1.0775,1.0749,1.0883,1.0883,1.0883,1.0883,1.0598,1.0596,1.069,1.0748,1.0806,1.0824,1.0928,1.0963,1.0996,1.1017,1.0998,1.0963,1.0952,1.0955,1.0941,1.0917,1.1092,1.1092,1.1092,1.0692,1.0695,1.0781,1.081,1.0864,1.0911,1.1009,1.1077,1.1107,1.1101,1.1033,1.1025,1.0968,1.0949,1.0944,1.0922,1.0878,0,0]},{"header":{"parameterUnit":"m.s-1","parameterCategory":1,"la1":30.2992,"la2":30.254,"lo1":-89.0895,"lo2":-89.0443,"dy":0.0025,"dx":0.0025,"nx":19,"ny":19,"refTime":"2026-05-07T09:00:00:Z","depth":0,"parameterNumber":3,"parameterNumberName":"V-component_of_WINDS"},"data":[0,0,0,-0.9642,-0.9639,-0.9551,-0.9551,-0.942,-0.9418,0,0,0,0,0,0,0,0,0,0,0,-0.9656,-0.9655,-0.9642,-0.9639,-0.9552,-0.9551,-0.942,-0.9418,0,0,0,0,0,0,0,0,0,0,0,-0.9657,-0.9656,-0.9654,-0.9639,-0.9552,-0.9551,-0.942,-0.9493,0,0,0,0,0,0,0,0,0,0,-0.9582,-0.9584,-0.9656,-0.9654,-0.9638,-0.9552,-0.9551,-0.9497,-0.9489,-0.9452,0,-0.9417,0,-0.9416,-0.9409,-0.9408,0,0,0,-0.9647,-0.9591,-0.9578,-0.9654,-0.9637,-0.9552,-0.9593,-0.9492,-0.9483,-0.9441,-0.9415,-0.9411,-0.9414,-0.9408,-0.9407,-0.9176,-0.9174,0,0,-0.9651,-0.9634,-0.9585,-0.9572,-0.9585,-0.9596,-0.959,-0.9487,-0.9457,-0.9415,-0.9408,-0.9411,-0.9407,-0.9405,-0.9177,-0.9175,0,0,0,-0.966,-0.9637,-0.9627,-0.9577,-0.9562,-0.9593,-0.9587,-0.9462,-0.946,-0.9407,-0.941,-0.9406,-0.9404,-0.9179,-0.9176,-0.9091,0,0,0,-0.9664,-0.9642,-0.9628,-0.9617,-0.9564,-0.9511,-0.9563,-0.9467,-0.9456,-0.941,-0.9406,-0.9402,-0.918,-0.9177,-0.9097,-0.9053,0,0,0,-0.9666,-0.9643,-0.9626,-0.9616,-0.9578,-0.9513,-0.9506,-0.9465,-0.9458,-0.9408,-0.9402,-0.9181,-0.9178,-0.9102,-0.9062,-0.899,0,0,0,-0.9662,-0.9547,-0.9625,-0.9498,-0.9578,-0.9462,-0.9507,-0.9419,-0.9366,-0.9405,-0.918,-0.9177,-0.9104,-0.9067,-0.8996,-0.8928,-0.8898,0,0,-0.9507,-0.9528,-0.9456,-0.9522,-0.9388,-0.9476,-0.9329,-0.9295,-0.9304,-0.9218,-0.9213,-0.9095,-0.9062,-0.8992,-0.8733,-0.8709,0,0,0,-0.9401,-0.9349,-0.9317,-0.9268,-0.9242,-0.9217,-0.9209,-0.9198,-0.9126,-0.9257,-0.905,-0.9031,-0.899,-0.8959,-0.8938,-0.8906,-0.9161,-0.9161,-0.9162,-0.9154,-0.9178,-0.9061,-0.9075,-0.9027,-0.9023,-0.8986,-0.897,-0.9003,-0.8954,-0.8928,-0.8769,-0.8732,-0.8717,-0.8682,-0.8894,-0.8893,-0.8893,-0.8893,-0.8932,-0.8863,-0.8917,-0.8823,-0.8848,-0.8769,-0.8762,-0.879,-0.872,-0.8789,-0.8754,-0.8828,-0.869,-0.8661,-0.8887,-0.8888,-0.8888,-0.8889,-0.8889,-0.8774,-0.8746,-0.8737,-0.8673,-0.8621,-0.8639,-0.8572,-0.8597,-0.8618,-0.8584,-0.8562,-0.8564,-0.857,-0.8572,-0.8572,-0.8571,-0.8571,-0.857,-0.857,-0.8614,-0.8607,-0.8549,-0.8518,-0.8493,-0.8463,-0.8462,-0.8438,-0.8417,-0.844,-0.844,-0.8481,-0.8672,-0.872,-0.8561,-0.8563,-0.8564,-0.8565,-0.8565,-0.838,-0.8439,-0.8349,-0.8325,-0.8293,-0.8243,-0.8277,-0.8227,-0.821,-0.8178,-0.8227,-0.8364,-0.8385,-0.8402,-0.8442,-0.8221,-0.8221,-0.8221,-0.8221,-0.8248,-0.8264,-0.8181,-0.8142,-0.8106,-0.813,-0.803,-0.803,-0.8038,-0.803,-0.8066,-0.8122,-0.8137,-0.815,-0.8172,-0.821,-0.7935,-0.7934,-0.7934,-0.8108,-0.8122,-0.8032,-0.8045,-0.8024,-0.8006,-0.7914,-0.7867,-0.7888,-0.7923,-0.8026,-0.8038,-0.8128,-0.8155,-0.8191,-0.8224,-0.8295,0,0]}]]